Weather Roundup
Issued by NWS Chicago, IL

Home | Current Version | Previous Version | Text Only | Print | Product List | Glossary On
Versions: 1 2 3 4 5 6 7 8 9 10 11 12 13 14 15 16 17 18 19 20 21 22 23 24 25 26 27 28 29 30 31 32 33 34 35 36 37 38 39 40 41 42 43 44 45 46 47 48 49 50
000
NZUS59 KLOT 241010
HRRLOT

CHICAGO AREA WEATHER ROUNDUP
NATIONAL WEATHER SERVICE CHICAGO/ROMEOVILLE IL
500 AM CDT THU APR 24 2014

NOTE: "FAIR" INDICATES FEW OR NO CLOUDS BELOW 12,000 FEET WITH NO
SIGNIFICANT WEATHER AND/OR OBSTRUCTIONS TO VISIBILITY.

* THESE STATIONS ARE NOT UNDER NWS QUALITY CONTROL. THEY ALSO MAY NOT
  REPORT WEATHER SUCH AS PRECIPITATION OR FOG.

ILZ005-006-012>014-019>023-241100-
NORTHEAST ILLINOIS

CITY           SKY/WX    TMP DP  RH WIND       PRES   REMARKS
OHARE          CLOUDY    41  31  67 E8        30.05F
MIDWAY         CLOUDY    43  36  76 NE6       30.06S
AURORA         CLOUDY    42  33  70 E9        30.02F
LANSING*       MOCLDY    42  36  79 NE7       30.06S
JOLIET*        CLOUDY    44  35  71 E7        30.04S
WAUKEGAN       CLOUDY    37  32  82 NE5       30.06F
DUPAGE AIRPORT CLOUDY    41  32  70 E12       30.02F
WHEELING       LGT RAIN  41  33  73 NE9       30.06F
KANKAKEE*      CLOUDY    45  39  79 E6        30.04R
MORRIS*        CLOUDY    44  35  70 E7        30.02F
LEWIS AIRPORT* CLOUDY    42  34  75 E10       30.04F
NORTHERLY IS     N/A     41  33  73 N10         N/A
$$

WIZ051-052-058>065-066-070>072-241100-
SOUTHEAST WISCONSIN

CITY           SKY/WX    TMP DP  RH WIND       PRES   REMARKS
MILWAUKEE      LGT RAIN  39  30  70 NE5       30.08F
KENOSHA*       LGT RAIN  37  34  89 NE7       30.07F
RACINE*        LGT RAIN  37  34  89 E5        30.08F
BURLINGTON     MIX PCPN  34  31  90 E9        30.04F WCI  27
WAUKESHA       LGT RAIN  34  27  75 E6        30.06F WCI  29
WEST BEND      RAIN      36  27  69 E3        30.06F
$$

INZ001>003-010>013-019-020-241100-
NORTHWEST INDIANA

CITY           SKY/WX    TMP DP  RH WIND       PRES   REMARKS
GARY*          CLOUDY    43  36  75 NE12      30.07S
MICHIGAN CITY* NOT AVBL
RENSSELAER*    NOT AVBL
VALPARAISO     CLOUDY    42  37  82 E7        30.05F
$$

LMZ740>746-241100-
SOUTHERN LAKE MICHIGAN

STATION/POSITION TIME  SKY/WX   TEMP WIND        PRES    VSBY
                                AIR  DIR/SP/G
                 (UTC)          (F)  (DEG/KT/KT) (MB)    (MI)
HARRISON CRIB    1000            39   20/ 13/ 14   N/A
BURNHAM HARBOR   1000            41   10/  8/ 14   N/A
CALUMET HARBOR   1000            40  360/  9/ 12 1018.9F
BURNS HARBOR     NOT AVBL
MICHIGAN CITY    1000            45  360/  3/  4   N/A
$$

ABBREVIATIONS USED IN REMARKS
   TC - TEMPERATURE IN CELSIUS
  WCI - WIND CHILL INDEX
   HX - HEAT INDEX
  VSB - VISIBILITY
$$


USA.gov is the U.S. government's official web portal to all federal, state and local government web resources and services.